Powrót do katalogu

ARIANE 3 R/B

AktywnyGTO
NORAD 16657·ROCKET BODY·🇫🇷 France

Wystrzelony Mar 28, 1986 z Guiana Space Centre

Loading…

TLE

NieaktualneSource: Space-Track

Epoka: Sep 13, 2026, 21:06 UTC

1 16657U 86026C   26256.87920178  .00000027  00000-0  69276-3 0  9992
2 16657   7.1737  23.6788 7221217 292.6566   9.5071  2.25817695281967

Śledź ARIANE 3 R/B w czasie rzeczywistym z AllMySat

Download on the App Store